Regional Weather Roundup
Issued by NWS Midland/Odessa, TX

Skip options and go directly to product.
Home | Oldest Version | Next Version | Current Version | All | Text Only | Save Text | Print | Product List | Glossary On

Skip product version selection by date and time.   
812
ASUS44 KMAF 290101
RWRMAF
MIDLAND AREA WEATHER ROUNDUP
NATIONAL WEATHER SERVICE MIDLAND TX
800 PM CDT FRI AUG 28 2015

...IN SOUTHWEST TEXAS AND SOUTHEAST NEW MEXICO...

CITY           SKY/WX    TMP DP  RH WIND       PRES   REMARKS
ALPINE         PTCLDY    89  49  25 SE8       30.10R
ANDREWS        CLOUDY    74  66  75 S7        30.03S
ARTESIA        CLOUDY    86  54  32 SW10      30.01R
BIG SPRING     CLOUDY    90  43  19 SE12      29.96S
CARLSBAD       CLOUDY    85  58  39 W9        29.97F
DRYDEN           N/A     95  40  14 SE9       29.90S
FORT STOCKTON  PTCLDY    92  42  17 SE16G24   29.94R
GUAD PASS      CLOUDY    74  55  51 NE21      30.15F
HOBBS          CLOUDY    75  61  60 S15G24    30.05R
MARFA          PTCLDY    86  48  26 NE7       30.09R
MIDLAND AIRPK  CLOUDY    95  37  13 N5        29.97R
MIDLAND INTL   CLOUDY    87  56  34 NW12G22   29.97R
ODESSA         CLOUDY    85  56  37 N10G26    29.98R
PECOS          MOCLDY    85  57  38 N24G33    29.93R HAZE
PRESIDIO       NOT AVBL
SEMINOLE       CLOUDY    76  61  59 SW9       30.02S
SNYDER         MOCLDY    93  43  17 SE9       29.94S
WINK           RAIN      72  68  87 NE16      30.03R
$$
...OTHER STATIONS IN TEXAS...

CITY           SKY/WX    TMP DP  RH WIND       PRES   REMARKS
ABILENE        MOCLDY    92  50  23 SE13      29.92S
AMARILLO       MOCLDY    82  61  48 NE9       30.05S
AUSTIN         PTCLDY    89  60  37 SE10      29.92R
BROWNSVILLE    CLEAR     82  66  58 E7        29.94R
CORPUS CHRISTI PTCLDY    84  63  49 SE10      29.94S
DALLAS FTW     PTCLDY    91  62  37 SE14      29.91S
DEL RIO        CLEAR     93  50  23 SE10      29.88S
EL PASO        MOCLDY    90  53  28 E16G30    30.02R
HOUSTON INT    PTCLDY    79  67  66 S3        29.94S
LUBBOCK        CLOUDY    84  57  39 N8G17     29.99R
SAN ANGELO     CLEAR     91  48  22 S6        29.91S
SAN ANTONIO    CLEAR     89  60  37 SE12      29.94R
WACO           CLEAR     86  59  39 SE6       29.92R
WICHITA FALLS  NOT AVBL
$$
...OTHER LOCATIONS IN NEW MEXICO...

CITY           SKY/WX    TMP DP  RH WIND       PRES   REMARKS
ALAMAGORDO     MOCLDY    86  48  26 N14G22    30.06R
ALBUQUERQUE    PTCLDY    79  51  37 E24G35    30.13R
CANNON AFB     MOCLDY    83  58  41 NE12      30.08R
CLOVIS         MOCLDY    84  55  37 NE12      30.09R
HOLLOMAN AFB   CLOUDY    85  51  31 N13       30.05R
ROSWELL        CLOUDY    86  52  30 W12       29.99S
RUIDOSO        CLOUDY    64  55  72 MISG      30.29S
SANTA FE       PTCLDY    78  41  26 SE15      30.22S
TRUTH OR CONSE CLOUDY    87  49  26 W8        30.07R
TUCUMCARI      CLOUDY    84  56  38 NE10      30.07R
$$

USA.gov is the U.S. government's official web portal to all federal, state and local government web resources and services.